Temperature
21 19 20 21 25 29 30 31 31 31 31 30 30 30 30 30 29 27 23 22 22 21 20 21 20 20 20 20 20 20 20 20 20 20 20 20 20 19 19 19 19 19 19 19 19 18 18 18 18
20 20 21 24 28 30 30 31 31 31 30 30 29 29 29 28 24 23 22 22 21 21 20 20 20 20 20 20 20 20 20 20 20 20 20 20 20 19 19 19 19 19 19 19 19 19 19 19 19
20 20 24 28 30 30 30 31 30 31 30 30 29 29 28 26 23 22 22 21 21 21 20 20 20 20 20 20 20 20 20 20 20 20 20 20 20 19 19 19 19 19 19 19 19 19 19 19 19
21 23 26 29 30 30 30 31 31 31 30 30 30 28 25 22 22 22 21 21 21 20 20 20 20 20 20 20 20 20 20 20 20 20 20 20 20 19 19 19 19 19 19 19 19 19 19 19 19
22 26 29 30 30 30 31 30 30 31 30 30 30 29 25 21 21 21 21 21 21 21 20 20 20 20 20 20 20 20 20 20 20 20 20 20 19 19 19 19 19 19 19 18 18 18 18 19 19
25 28 30 30 30 30 31 30 30 30 30 29 29 28 24 21 21 21 21 21 21 21 20 19 20 20 20 20 20 20 20 20 20 20 20 20 19 19 19 19 19 19 18 18 18 18 18 18 18
27 29 30 30 30 30 30 30 30 30 30 29 29 28 24 22 21 21 21 21 21 21 20 19 19 20 20 20 20 20 20 20 20 20 19 19 19 19 19 19 19 19 18 18 18 18 18 18 18
26 29 29 30 29 30 30 30 29 29 29 27 28 28 25 21 21 21 20 20 21 21 20 19 19 19 19 19 19 20 20 20 19 19 19 19 19 19 19 19 18 18 18 18 18 18 18 18 18
24 28 29 29 29 30 30 30 29 28 27 26 26 26 24 21 20 20 20 20 20 20 19 19 19 19 18 18 19 19 19 19 19 19 19 19 18 18 18 18 18 18 18 18 18 18 18 18 18
26 28 29 29 29 30 29 29 28 29 28 26 24 22 21 21 20 20 20 20 19 19 19 19 19 19 19 19 18 18 18 19 19 18 18 18 18 18 18 17 18 18 18 18 18 18 18 18 17
27 28 29 29 28 28 29 29 28 29 28 27 24 22 21 21 21 21 21 20 20 19 19 19 19 19 19 19 18 18 18 18 18 18 18 18 18 18 18 18 18 18 18 18 17 17 17 17 17
27 28 28 28 27 28 28 28 28 27 26 24 23 22 22 22 22 21 21 20 19 19 19 19 19 19 19 19 18 18 18 18 18 18 18 18 18 18 18 18 18 18 17 17 17 17 17 17 17
28 28 27 27 27 27 27 27 26 24 23 22 22 22 22 22 21 21 20 20 19 19 18 19 19 19 19 19 18 18 18 18 18 18 18 18 18 18 18 18 18 18 17 17 17 17 17 17 17
28 28 27 27 27 26 27 26 25 23 22 22 22 22 22 21 21 20 20 19 19 19 19 19 19 19 19 19 19 18 18 18 18 18 18 18 18 18 17 17 17 17 17 17 17 17 17 17 17
27 28 28 28 27 26 27 26 24 22 22 22 21 21 20 20 20 20 19 19 19 19 19 19 19 19 19 18 18 18 18 18 18 17 17 17 17 17 17 17 17 17 16 16 16 16 16 16 16
28 28 28 28 27 26 27 26 24 22 22 22 21 20 19 19 19 19 19 19 19 19 19 19 18 18 18 18 18 17 17 17 17 17 17 17 17 17 17 16 16 16 16 16 16 16 16 16 16
29 29 28 27 27 27 27 26 23 22 22 22 21 21 20 19 19 19 19 19 18 18 18 18 18 18 18 18 18 17 17 17 17 17 17 17 16 16 16 16 16 16 16 16 16 16 15 16 16
28 28 28 27 26 26 26 24 23 22 22 22 21 21 20 19 19 18 18 18 18 18 18 18 18 18 18 17 18 17 17 17 17 16 16 16 16 16 16 16 15 15 15 15 15 15 15 15 15
28 28 27 26 26 26 25 24 23 22 22 22 22 21 21 20 19 18 18 18 18 18 18 18 18 18 18 17 17 17 17 16 16 16 16 16 15 15 15 15 15 15 15 15 15 15 15 15 15
28 27 27 26 25 25 25 24 23 23 22 22 22 21 20 20 19 19 18 18 18 18 18 18 18 17 17 17 17 17 17 16 16 16 15 15 15 15 15 14 14 14 14 14 14 14 14 15 15
28 27 27 26 25 25 25 24 23 23 22 22 21 21 21 21 20 20 19 19 18 18 18 18 17 17 17 17 16 16 16 16 16 15 15 14 14 14 14 14 14 14 14 14 14 13 14 14 14
27 27 26 26 25 25 25 24 24 23 23 23 22 22 22 21 21 20 20 19 19 18 18 17 17 17 17 16 16 16 16 16 16 15 15 14 14 13 13 13 13 13 13 13 13 14 13 13 14
27 26 26 26 26 26 25 25 25 24 23 24 23 22 22 22 21 21 20 19 19 18 18 17 17 17 16 16 16 15 15 15 15 14 14 13 14 13 13 12 12 12 12 12 12 12 12 13 13
26 26 26 26 27 25 25 25 25 25 24 24 24 23 22 22 21 21 20 19 19 18 18 17 17 16 16 16 15 15 14 14 14 13 13 13 14 13 13 12 12 12 12 12 11 12 12 12 12
26 27 26 26 26 25 25 25 25 25 25 25 24 24 23 22 22 21 20 20 19 18 18 17 16 16 16 15 15 14 14 13 13 13 13 13 13 13 12 12 11 11 11 11 11 11 11 11 11
27 27 26 25 25 26 25 25 26 26 25 24 24 24 23 23 22 21 20 20 19 18 17 17 16 15 15 14 14 14 13 13 13 12 12 12 12 12 11 11 11 11 11 11 11 11 11 11 11
28 28 28 27 26 26 26 26 26 25 25 25 24 24 24 23 22 21 20 20 19 18 17 16 16 15 14 14 13 13 12 12 12 11 11 12 11 11 11 10 10 10 10 10 10 10 10 11 11
28 28 27 27 26 26 26 26 26 26 26 26 25 25 24 23 22 21 20 19 18 18 17 16 15 14 14 13 13 13 12 12 11 11 11 11 10 10 10 10 10 10 10 10 10 10 10 10 10
27 27 27 27 27 26 26 26 28 27 27 26 26 25 24 23 22 21 20 19 18 17 16 16 15 14 14 13 12 12 12 11 11 11 11 10 10 10 10 9 9 9 9 9 9 10 10 10 10
28 28 27 26 26 26 26 27 27 27 27 27 26 25 24 23 22 20 19 18 18 17 16 16 15 14 13 13 12 12 11 11 11 11 10 10 10 10 9 9 9 9 9 9 9 9 9 9 10
Wind_Speed
15 12 7 4 5 4 4 5 6 7 5 5 4 3 3 5 4 4 6 14 17 18 20 20 16 15 14 14 14 14 14 14 14 14 13 12 11 11 10 9 8 6 5 5 5 5 6 6 7
12 8 5 5 5 2 4 6 8 8 4 2 3 2 4 6 7 7 9 14 18 18 19 19 18 15 14 14 14 14 14 14 13 13 12 12 11 10 9 8 7 6 5 5 5 5 5 6 6
10 7 5 4 4 3 4 7 8 7 2 1 2 4 4 5 6 6 10 17 17 16 17 18 18 15 14 14 13 13 13 13 12 12 11 10 10 9 8 7 7 6 5 5 5 5 5 5 5
6 5 5 7 4 2 4 7 8 4 2 2 3 6 6 6 3 7 15 17 17 16 16 19 17 15 14 13 13 12 12 12 11 10 10 9 9 8 7 7 6 6 5 5 5 4 5 5 5
6 5 7 7 3 2 4 7 7 3 2 3 3 7 7 6 7 13 15 17 16 16 15 19 16 15 14 13 13 12 12 11 11 10 9 8 8 7 7 6 6 5 5 4 5 5 5 5 5
5 5 9 7 2 2 3 6 5 3 3 4 5 8 6 7 11 13 14 15 15 15 15 17 16 14 13 13 12 12 11 11 10 9 9 8 8 7 7 7 6 6 5 5 5 5 5 6 6
7 6 9 7 4 1 4 6 5 3 3 3 3 6 8 10 11 13 13 13 13 14 13 15 15 14 13 12 11 11 11 10 10 9 8 8 8 8 7 7 7 7 7 6 6 6 6 7 7
5 6 8 6 5 2 4 5 5 3 4 4 2 5 9 12 12 13 12 12 12 12 12 12 12 12 12 12 12 11 10 10 10 9 8 7 8 9 9 10 10 8 8 7 7 8 8 8 9
4 7 7 5 5 3 5 6 4 2 4 4 4 6 13 17 15 13 12 12 11 10 9 10 10 10 10 10 11 12 11 10 10 10 9 8 8 9 10 10 7 8 9 8 8 9 9 10 12
5 7 4 4 7 8 7 6 4 2 4 6 10 12 16 16 14 13 13 13 12 11 10 8 7 7 7 6 7 8 8 8 8 7 7 7 6 7 7 3 5 8 9 9 10 10 10 12 11
5 6 6 6 8 9 8 4 3 3 3 4 9 13 15 14 13 12 11 11 11 10 9 7 6 6 5 4 4 4 5 4 6 6 5 6 6 6 6 5 5 7 9 9 7 9 9 10 9
6 7 7 8 8 8 6 3 1 4 4 4 9 12 13 13 12 11 10 9 9 8 7 6 6 5 5 4 3 3 4 3 4 4 4 5 4 5 5 4 5 5 5 5 6 6 7 9 10
8 7 5 5 6 4 3 0 2 5 6 8 10 11 11 11 10 9 9 9 8 7 7 6 5 5 5 4 3 3 3 3 4 3 4 5 5 5 5 4 5 6 6 6 6 7 7 8 9
5 7 6 4 2 1 2 3 3 5 6 8 9 9 9 9 9 9 8 8 8 7 6 5 5 5 5 4 3 2 3 3 3 3 3 5 6 5 4 5 5 6 6 6 6 6 6 7 7
7 8 5 2 1 3 3 4 4 4 6 8 9 8 8 7 7 7 7 7 6 6 6 5 5 5 4 4 4 4 4 3 3 2 3 4 6 5 5 5 5 5 6 6 6 7 7 7 7
8 7 4 4 1 2 6 4 6 3 6 8 8 8 8 7 6 6 6 6 5 5 6 5 4 4 4 3 4 3 3 2 2 2 3 3 4 5 5 5 5 5 6 6 5 7 7 7 7
5 4 2 3 2 2 4 3 5 3 6 7 7 8 8 8 7 6 6 6 6 5 5 5 3 3 3 3 3 3 2 2 2 2 2 3 4 5 5 5 4 5 5 5 7 6 7 7 7
6 6 3 2 3 1 2 5 5 4 5 6 7 8 8 8 8 7 6 6 6 5 4 4 3 3 2 2 2 2 2 2 2 2 2 3 3 4 5 5 5 7 6 6 6 7 7 7 8
6 6 3 3 2 1 4 5 5 5 5 5 6 7 8 9 8 7 6 6 5 5 5 3 3 3 2 1 2 2 2 2 2 2 2 3 4 4 5 6 4 6 7 7 8 8 8 8 7
4 4 0 4 2 1 4 5 5 5 4 4 5 6 7 8 8 7 6 5 5 5 4 4 3 3 2 1 2 2 3 3 3 3 2 3 4 4 5 4 7 6 6 8 8 8 9 8 7
3 4 2 2 4 4 4 4 5 5 4 5 5 5 7 7 8 7 6 6 5 5 4 3 2 2 3 3 3 3 3 4 4 4 4 4 4 5 6 7 8 7 9 8 7 8 10 9 8
2 2 1 4 5 2 3 2 5 6 7 7 7 7 7 7 7 6 6 6 5 5 5 3 3 3 3 4 4 5 6 7 6 6 5 5 6 7 7 8 8 8 9 8 9 9 8 9 10
2 2 3 4 3 2 2 1 4 6 7 9 9 9 8 7 6 6 6 5 5 4 4 4 3 3 3 4 4 6 7 7 7 6 6 7 7 7 8 8 8 8 9 9 9 9 10 9 10
6 5 5 5 5 2 1 2 3 5 7 9 10 10 9 7 6 6 5 5 4 4 3 3 3 3 3 4 5 6 7 7 8 8 9 8 7 7 7 8 8 9 9 9 10 10 11 10 11
6 5 4 4 3 2 2 2 3 5 6 8 9 10 9 8 7 7 6 6 5 4 3 2 2 2 2 3 4 5 6 7 7 8 8 8 9 8 7 8 8 9 9 10 10 10 11 11 11
5 6 5 5 3 1 3 1 5 6 6 7 8 8 9 8 7 6 6 5 4 3 3 3 2 2 3 3 4 4 5 7 7 6 9 9 9 9 9 9 10 10 11 11 10 11 12 11 11
3 3 4 4 2 1 2 2 5 7 8 9 10 9 9 8 7 6 5 5 4 3 3 2 2 2 3 4 4 5 6 7 8 8 9 9 8 9 10 10 11 11 11 11 11 11 11 11 12
3 1 3 4 4 2 2 2 3 10 10 11 11 10 9 8 7 6 5 4 3 3 2 1 2 3 4 5 6 6 6 7 8 9 10 10 11 10 11 12 12 12 12 12 12 12 12 11 12
4 4 3 3 4 5 2 2 3 6 9 9 10 9 8 7 7 6 5 4 4 3 2 2 3 4 5 5 6 7 8 9 9 10 10 10 10 11 11 12 12 12 12 12 11 12 13 13 13
5 3 4 4 3 4 5 2 6 5 7 8 7 7 7 7 6 6 6 5 3 3 2 3 4 5 5 6 6 8 8 9 10 11 10 11 11 11 12 12 12 13 13 12 12 13 13 13 14
Wind_Direction
170 180 201 226 243 228 63 43 16 6 8 23 36 20 16 25 3 60 115 142 144 145 144 150 149 150 150 149 147 146 148 152 154 154 153 152 152 152 151 149 148 146 141 128 114 103 99 98 101
171 178 209 240 263 219 84 31 11 2 358 36 70 50 55 61 52 97 131 140 147 145 147 153 146 149 148 146 145 144 145 146 147 149 150 152 152 153 154 156 156 157 153 142 132 122 115 112 114
169 202 245 255 265 334 25 15 359 353 13 105 80 54 51 59 82 113 134 145 147 143 145 144 149 151 149 146 144 144 144 144 144 146 148 151 154 156 161 164 167 170 168 160 152 142 134 130 128
182 215 238 253 264 14 351 355 348 346 90 94 110 95 84 55 65 120 140 147 145 146 150 146 154 153 152 149 146 144 144 145 147 148 150 154 159 165 170 172 175 179 181 178 169 160 152 148 147
229 250 251 246 257 357 347 352 342 337 79 110 114 105 92 65 90 126 142 148 150 151 149 148 155 155 156 155 153 152 151 152 153 155 158 163 169 177 183 186 187 189 192 190 182 179 173 169 170
229 251 257 257 242 345 14 7 356 34 98 109 113 112 92 104 119 134 144 152 152 151 151 144 154 158 160 161 162 161 160 160 162 165 169 176 182 190 197 202 205 205 208 208 203 200 195 189 190
264 264 270 276 277 280 20 3 9 40 104 99 114 116 119 120 126 136 143 151 153 154 149 153 162 164 165 167 170 169 168 169 171 176 182 189 197 204 211 216 221 222 223 221 219 218 216 205 204
276 267 258 257 265 274 15 357 13 16 87 83 98 132 137 136 135 135 140 149 154 156 156 158 165 166 173 175 175 177 177 179 180 184 192 201 210 216 219 226 220 230 236 234 233 231 227 220 215
255 254 259 271 283 304 350 341 6 31 111 91 65 79 121 133 135 138 143 148 153 159 161 167 167 170 180 181 172 182 185 187 192 197 198 210 226 225 217 230 210 231 243 242 241 242 239 234 222
240 261 283 315 304 308 322 323 334 192 138 113 101 103 123 135 141 147 153 155 161 166 170 172 175 165 186 189 175 197 200 193 211 213 208 222 238 251 251 193 215 241 248 249 242 244 243 242 237
244 276 308 303 305 305 298 306 319 247 141 122 133 135 140 141 145 150 155 159 160 167 173 174 174 170 189 192 199 209 218 209 220 222 228 241 248 248 251 243 222 234 241 247 237 237 244 244 249
257 275 290 300 312 300 294 295 8 31 48 76 128 139 144 148 149 150 150 150 150 163 171 176 177 180 191 204 214 230 233 230 241 226 241 249 256 258 256 250 248 243 243 247 253 252 254 258 256
252 280 300 301 306 311 287 171 80 66 72 103 123 135 141 144 140 137 138 144 151 164 175 179 187 191 196 200 230 243 261 260 252 257 252 258 256 258 260 257 257 257 251 243 246 252 254 260 259
290 288 289 289 303 238 183 130 115 78 94 115 126 131 134 134 134 136 142 147 154 163 170 180 194 193 193 203 213 235 256 249 257 244 250 257 259 262 262 253 252 257 261 268 265 263 262 262 262
271 272 246 192 188 162 176 144 88 89 116 118 119 118 113 116 124 132 138 144 150 156 159 174 184 188 196 216 227 228 234 242 246 246 244 254 262 264 266 262 257 261 263 261 263 271 270 264 263
250 252 236 120 176 187 233 170 104 110 126 119 120 120 116 111 114 113 118 124 133 144 152 167 170 166 184 203 228 239 245 245 255 254 253 251 260 264 270 273 272 270 264 263 263 262 265 267 269
230 299 342 122 66 207 237 130 109 130 137 127 128 126 122 118 111 107 113 119 123 135 145 157 157 163 181 196 216 224 231 247 247 245 252 256 264 267 264 273 282 269 264 263 266 271 275 275 275
338 331 336 37 66 188 167 115 120 127 134 132 130 129 126 118 113 114 115 120 129 137 142 151 161 160 177 195 206 229 228 233 249 266 281 281 279 274 280 274 277 277 271 266 267 275 269 274 274
311 310 343 66 83 153 142 137 131 131 139 135 131 128 126 119 119 126 131 135 141 142 136 148 165 162 188 209 244 245 248 250 249 254 274 282 289 287 284 292 290 278 278 279 278 276 271 268 273
280 287 41 113 104 158 140 142 141 136 136 138 135 138 135 134 137 142 147 149 151 148 150 166 178 182 210 209 270 280 292 278 280 285 272 276 284 290 286 299 292 287 286 273 272 270 278 277 267
286 307 323 138 142 153 164 150 158 151 157 154 155 154 150 152 151 153 158 157 159 161 172 173 180 208 228 239 246 248 247 255 253 262 261 273 286 288 298 296 295 300 287 281 281 275 266 272 271
302 29 210 184 210 172 243 186 157 169 176 178 175 174 172 168 165 166 168 168 174 176 181 187 207 227 237 245 259 273 282 289 300 293 292 289 280 285 288 289 289 288 288 288 276 271 275 268 269
49 133 191 202 219 192 207 262 134 170 193 191 183 181 183 179 178 179 179 181 188 191 195 199 210 229 244 260 268 274 281 291 292 296 292 289 285 280 283 287 290 287 282 285 288 289 277 272 268
144 163 176 208 227 207 100 270 134 165 188 184 181 185 188 187 188 189 189 190 198 201 205 208 205 224 248 262 274 280 291 295 299 296 296 290 287 283 282 286 285 281 283 282 276 275 270 269 274
206 244 243 222 221 90 123 263 97 137 166 178 180 183 188 194 200 198 198 197 197 198 203 208 205 225 256 273 283 288 296 292 283 290 295 295 295 292 294 295 292 287 285 280 276 271 272 270 266
230 276 315 323 343 94 172 167 123 144 159 174 183 186 191 200 201 200 197 196 195 196 199 207 223 252 278 287 293 296 294 290 299 305 302 297 295 299 307 295 287 285 282 278 275 273 266 262 262
232 263 326 294 282 257 127 142 151 166 180 186 191 197 202 202 197 194 190 190 187 189 190 210 242 273 290 297 294 287 292 298 301 296 282 289 295 293 293 292 288 284 281 277 276 271 271 268 263
307 264 250 292 320 318 153 187 168 180 190 190 195 199 197 192 188 180 173 171 167 170 174 217 268 283 290 287 290 293 294 292 291 290 297 294 291 288 287 286 286 283 279 275 272 272 265 263 262
187 213 262 294 318 311 329 90 104 176 189 194 195 196 193 190 182 170 164 160 167 186 211 248 269 277 286 290 290 293 292 295 293 289 289 290 288 288 285 285 285 283 280 276 272 270 273 267 265
253 258 242 279 287 286 301 88 126 172 193 199 197 187 184 180 172 168 166 170 190 221 259 274 284 287 290 292 290 292 294 294 293 294 296 293 288 285 285 284 284 282 280 277 273 270 271 269 266
Height
1527 1529 1532 1533 1526 1514 1509 1506 1503 1502 1501 1503 1504 1503 1503 1505 1509 1519 1523 1523 1526 1529 1530 1532 1536 1539 1542 1545 1548 1550 1552 1554 1556 1557 1558 1560 1561 1562 1563 1563 1564 1565 1565 1566 1566 1567 1567 1567 1568
1529 1531 1533 1530 1516 1510 1510 1505 1504 1504 1504 1505 1505 1506 1507 1511 1517 1520 1521 1524 1528 1531 1533 1535 1537 1541 1544 1546 1549 1551 1553 1555 1557 1558 1559 1561 1562 1563 1563 1564 1565 1565 1566 1566 1567 1567 1568 1568 1569
1530 1531 1531 1520 1511 1511 1510 1505 1505 1504 1505 1505 1506 1508 1511 1516 1520 1521 1523 1525 1530 1533 1535 1536 1539 1542 1545 1547 1550 1552 1554 1556 1558 1559 1560 1561 1562 1563 1564 1565 1565 1566 1567 1567 1568 1568 1569 1569 1569
1531 1532 1528 1517 1510 1508 1507 1505 1505 1503 1504 1506 1506 1510 1516 1521 1522 1523 1524 1528 1531 1534 1537 1538 1541 1544 1546 1549 1551 1553 1555 1557 1558 1560 1561 1562 1563 1564 1565 1565 1566 1567 1567 1568 1568 1569 1569 1570 1570
1531 1527 1517 1510 1508 1507 1506 1506 1506 1502 1504 1506 1506 1510 1518 1522 1522 1524 1526 1530 1534 1537 1540 1540 1542 1545 1548 1550 1552 1554 1556 1557 1559 1560 1561 1562 1563 1564 1565 1566 1566 1567 1568 1568 1568 1569 1569 1570 1571
1529 1522 1515 1510 1508 1507 1506 1507 1505 1504 1506 1507 1508 1511 1520 1522 1524 1526 1529 1533 1537 1539 1542 1541 1544 1546 1549 1551 1553 1555 1556 1558 1559 1560 1561 1562 1563 1564 1565 1566 1566 1567 1568 1568 1569 1569 1570 1570 1571
1526 1518 1512 1511 1511 1508 1508 1508 1506 1506 1507 1509 1510 1512 1520 1524 1525 1528 1531 1535 1538 1541 1543 1543 1545 1547 1549 1552 1554 1555 1556 1558 1559 1560 1561 1562 1563 1564 1565 1565 1566 1567 1567 1568 1568 1569 1569 1570 1570
1527 1519 1512 1510 1511 1508 1508 1508 1509 1508 1509 1512 1512 1512 1519 1524 1525 1528 1531 1535 1539 1542 1544 1545 1548 1549 1551 1552 1554 1555 1557 1558 1559 1560 1561 1562 1563 1563 1564 1565 1565 1566 1566 1567 1568 1568 1569 1569 1570
1528 1520 1512 1510 1510 1507 1508 1508 1509 1510 1511 1513 1514 1515 1518 1522 1525 1528 1532 1536 1539 1542 1545 1547 1549 1550 1552 1554 1554 1555 1556 1557 1558 1559 1560 1561 1563 1564 1564 1564 1564 1565 1565 1566 1566 1567 1567 1568 1568
1524 1516 1511 1511 1511 1509 1509 1510 1509 1509 1510 1514 1516 1519 1520 1523 1526 1530 1533 1536 1539 1541 1544 1547 1549 1550 1552 1554 1554 1555 1557 1557 1558 1560 1560 1560 1561 1562 1563 1563 1563 1563 1564 1564 1565 1565 1565 1566 1567
1520 1516 1512 1512 1512 1511 1510 1509 1510 1507 1509 1513 1517 1520 1522 1525 1528 1531 1534 1537 1539 1541 1544 1546 1548 1548 1550 1552 1554 1555 1556 1557 1557 1558 1558 1558 1559 1560 1560 1561 1561 1561 1562 1562 1563 1563 1564 1564 1565
1519 1516 1515 1514 1513 1511 1510 1510 1510 1512 1515 1517 1519 1521 1523 1526 1529 1532 1535 1537 1539 1541 1543 1545 1547 1547 1549 1551 1553 1554 1555 1555 1556 1556 1556 1557 1557 1558 1558 1558 1558 1559 1559 1559 1560 1560 1561 1561 1562
1517 1514 1514 1513 1512 1511 1511 1511 1513 1516 1518 1519 1521 1523 1525 1527 1530 1533 1535 1537 1538 1541 1543 1544 1545 1546 1547 1549 1550 1552 1553 1553 1554 1554 1554 1554 1555 1555 1556 1555 1555 1556 1556 1557 1557 1557 1557 1557 1558
1514 1513 1512 1512 1512 1512 1512 1513 1515 1519 1521 1522 1523 1525 1527 1529 1531 1533 1535 1536 1538 1540 1542 1543 1544 1546 1546 1547 1549 1550 1551 1551 1551 1551 1552 1552 1552 1552 1552 1552 1552 1552 1553 1553 1553 1553 1553 1553 1553
1514 1511 1508 1509 1510 1511 1511 1513 1517 1521 1522 1523 1525 1527 1529 1530 1532 1534 1535 1537 1538 1540 1541 1542 1544 1545 1546 1547 1548 1548 1548 1549 1549 1549 1549 1549 1550 1549 1550 1550 1549 1549 1550 1549 1549 1549 1549 1549 1549
1508 1505 1504 1507 1509 1511 1511 1513 1519 1523 1523 1525 1527 1529 1530 1532 1533 1534 1535 1536 1537 1539 1540 1541 1543 1543 1545 1545 1546 1547 1548 1548 1547 1548 1548 1547 1547 1547 1547 1547 1546 1546 1546 1547 1546 1546 1546 1546 1545
1501 1502 1504 1506 1509 1509 1509 1512 1521 1523 1524 1526 1527 1530 1532 1533 1534 1535 1536 1537 1537 1539 1540 1541 1542 1543 1545 1545 1545 1546 1546 1546 1546 1547 1547 1546 1545 1544 1544 1544 1543 1543 1543 1543 1543 1543 1542 1542 1541
1506 1503 1504 1507 1510 1510 1510 1516 1521 1523 1524 1526 1528 1530 1532 1534 1535 1536 1537 1538 1539 1540 1541 1542 1543 1543 1544 1545 1545 1546 1545 1546 1545 1545 1545 1544 1543 1543 1542 1542 1541 1541 1540 1540 1539 1538 1538 1538 1537
1504 1505 1507 1510 1512 1511 1513 1517 1521 1524 1525 1527 1529 1531 1533 1535 1537 1537 1538 1539 1540 1541 1541 1542 1543 1544 1544 1545 1546 1546 1546 1545 1545 1544 1543 1542 1542 1541 1540 1540 1538 1537 1537 1536 1536 1535 1535 1534 1534
1504 1506 1508 1512 1513 1512 1515 1518 1520 1524 1526 1528 1530 1532 1534 1535 1537 1539 1539 1540 1541 1542 1542 1542 1543 1544 1544 1544 1544 1544 1544 1544 1543 1543 1541 1540 1539 1538 1538 1536 1536 1535 1533 1532 1531 1531 1531 1531 1530
1504 1505 1507 1511 1514 1513 1515 1521 1521 1524 1527 1528 1530 1532 1534 1535 1537 1539 1540 1541 1542 1542 1542 1543 1543 1543 1543 1543 1543 1543 1542 1541 1542 1541 1540 1538 1536 1535 1534 1533 1532 1531 1531 1530 1528 1527 1527 1527 1527
1505 1505 1507 1510 1512 1514 1515 1523 1520 1520 1523 1526 1529 1531 1533 1535 1536 1538 1539 1540 1541 1542 1542 1542 1541 1541 1541 1541 1542 1541 1541 1541 1540 1538 1537 1535 1533 1532 1531 1530 1528 1527 1527 1526 1525 1524 1523 1522 1522
1506 1506 1506 1507 1509 1512 1513 1516 1517 1518 1521 1522 1525 1529 1531 1533 1535 1537 1538 1539 1540 1541 1541 1541 1540 1540 1539 1539 1539 1539 1539 1538 1537 1535 1534 1532 1531 1528 1527 1526 1524 1523 1522 1521 1520 1519 1518 1518 1518
1507 1507 1508 1506 1504 1517 1515 1515 1519 1514 1516 1518 1522 1526 1529 1531 1533 1535 1537 1538 1539 1539 1539 1539 1538 1538 1538 1537 1536 1536 1535 1534 1533 1531 1530 1529 1527 1525 1524 1522 1520 1519 1518 1517 1515 1514 1514 1513 1513
1505 1507 1513 1515 1515 1517 1512 1513 1515 1510 1512 1515 1518 1523 1526 1529 1531 1533 1535 1536 1537 1537 1537 1537 1537 1536 1535 1535 1534 1532 1531 1530 1529 1528 1527 1525 1524 1522 1520 1518 1516 1514 1513 1511 1510 1510 1509 1508 1507
1501 1502 1514 1524 1519 1513 1512 1513 1508 1508 1512 1516 1518 1520 1524 1527 1529 1530 1532 1533 1534 1535 1535 1535 1534 1534 1533 1532 1531 1529 1527 1527 1526 1524 1522 1521 1519 1518 1515 1513 1511 1509 1508 1507 1506 1505 1504 1503 1502
1499 1498 1496 1503 1507 1511 1509 1508 1505 1508 1511 1514 1516 1519 1521 1524 1526 1528 1529 1531 1532 1532 1532 1532 1532 1531 1530 1529 1527 1526 1524 1523 1521 1519 1518 1517 1515 1513 1511 1508 1506 1504 1503 1501 1500 1499 1498 1498 1497
1496 1495 1500 1502 1515 1516 1512 1509 1505 1505 1507 1509 1512 1515 1518 1521 1523 1525 1527 1528 1529 1530 1530 1529 1529 1528 1527 1526 1524 1524 1521 1520 1517 1516 1514 1511 1509 1507 1505 1503 1501 1499 1498 1496 1494 1494 1493 1492 1491
1500 1500 1499 1498 1503 1512 1515 1508 1493 1497 1500 1503 1507 1511 1515 1518 1521 1523 1525 1526 1527 1527 1527 1527 1526 1525 1524 1522 1521 1519 1518 1516 1514 1512 1510 1507 1504 1502 1499 1498 1496 1494 1492 1491 1489 1488 1487 1486 1485
1492 1494 1497 1506 1508 1505 1505 1505 1492 1495 1498 1501 1504 1509 1513 1516 1519 1521 1523 1524 1525 1525 1525 1525 1523 1522 1521 1519 1518 1516 1514 1511 1509 1508 1505 1502 1499 1497 1495 1492 1490 1488 1487 1485 1484 1482 1482 1480 1479